Wind_Speed
3 3 5 6 6 6 6 5 5 6 7 7 7 7 7 6 6 6 6 6 6 5 5 5 5 5 5 5 4 3 3 3 3 3 3 4 5 6 6 6 6 6 5 5 6 6 5 5 5
3 3 5 6 6 6 6 5 5 5 5 6 6 7 7 7 7 6 6 6 6 6 6 6 6 6 6 6 5 5 4 4 4 4 3 4 5 6 7 7 6 6 6 6 6 6 6 6 6
3 3 4 5 5 5 5 5 5 5 5 5 6 7 7 7 7 7 7 7 7 6 6 6 6 7 7 7 7 6 5 5 5 5 5 5 6 6 6 6 7 6 7 7 8 8 7 7 7
4 4 4 5 5 5 5 4 4 4 5 5 6 6 6 6 7 7 8 8 8 8 7 6 6 6 7 8 8 8 7 6 6 6 6 6 6 6 7 7 8 7 7 8 8 8 8 8 8
4 4 5 5 5 5 5 4 4 4 4 4 5 6 6 6 7 7 7 8 8 8 7 7 7 7 7 8 8 8 8 7 7 7 7 7 7 7 7 8 8 8 8 8 8 8 9 9 9
4 5 5 5 6 6 6 6 6 6 5 5 5 6 6 7 7 7 7 7 8 8 8 7 7 7 7 7 8 8 8 8 8 7 7 7 8 8 8 8 9 9 8 8 9 9 10 10 10
4 4 5 6 6 6 6 6 6 6 5 5 5 6 6 6 7 7 7 7 8 8 8 8 8 7 6 7 7 8 8 8 9 8 8 8 8 9 9 9 9 9 9 9 9 10 11 11 11
4 5 5 6 6 6 6 6 6 6 6 6 6 6 6 6 6 7 7 8 8 8 8 8 8 8 7 6 7 7 7 8 9 9 8 8 8 9 10 9 10 10 10 9 10 10 10 11 12
4 4 5 5 6 6 6 6 6 6 6 6 6 6 6 6 6 7 7 7 7 8 8 8 7 8 8 7 7 7 7 7 8 8 8 9 9 10 10 10 10 10 10 10 10 10 10 11 12
4 4 4 5 5 6 5 5 6 6 6 6 6 6 6 6 6 6 6 7 7 7 8 8 8 8 8 8 8 8 8 8 8 8 9 9 9 9 10 9 10 10 11 11 11 11 11 11 11
4 5 5 5 5 5 6 5 5 5 6 5 5 5 5 6 6 6 6 6 6 7 7 7 7 8 9 9 9 9 9 9 9 9 8 9 9 9 9 9 10 10 10 10 10 10 10 10 10
4 4 4 5 5 5 6 6 5 5 5 5 5 5 5 5 5 6 6 6 6 7 7 7 8 8 9 9 9 9 8 8 9 9 8 9 9 9 9 9 9 9 9 10 10 10 10 10 11
5 5 4 4 4 5 5 5 5 5 5 5 5 5 5 5 6 6 6 6 6 7 8 8 8 9 9 9 9 9 9 9 9 9 8 8 8 8 8 8 8 8 8 9 9 10 10 10 10
5 5 5 5 5 5 5 5 5 5 5 5 5 5 5 5 6 6 6 7 7 8 8 8 9 9 10 9 9 9 9 9 9 9 9 8 8 8 7 7 8 8 9 9 9 9 10 10 10
6 6 6 6 5 5 6 6 6 6 6 5 5 5 6 6 6 6 7 7 8 8 8 9 8 9 10 10 10 10 9 8 8 8 8 8 8 8 8 7 7 8 8 8 9 9 10 10 10
6 6 7 7 7 6 6 6 6 6 6 6 6 6 6 6 7 7 7 8 8 8 9 9 9 9 10 10 10 10 9 9 9 9 9 8 8 8 8 8 8 8 8 8 8 9 9 9 10
6 6 7 7 7 7 7 7 7 7 7 6 7 7 7 7 7 8 8 8 8 9 9 9 9 10 9 10 10 10 10 10 10 10 9 9 9 8 8 8 8 8 8 9 9 9 9 10 10
6 7 7 8 8 8 7 8 8 8 8 8 8 8 8 9 9 8 8 9 9 9 10 10 10 10 10 10 10 10 10 10 10 10 10 9 9 8 8 8 8 8 9 9 9 10 10 10 11
8 7 7 8 9 9 8 8 8 9 8 8 9 9 9 9 9 9 9 9 9 10 10 10 11 11 11 11 11 11 10 10 10 9 9 9 9 8 8 8 9 9 9 10 10 11 11 11 11
9 9 8 9 9 9 9 9 9 9 9 9 9 10 10 10 10 10 10 10 10 10 10 10 10 11 11 11 11 11 11 11 10 10 10 10 10 9 9 9 10 10 10 11 11 12 12 12 12
10 10 10 10 10 10 10 10 10 10 10 10 11 10 11 11 11 11 10 10 10 10 11 10 11 11 11 11 11 11 11 11 11 11 11 11 10 10 10 10 11 11 11 12 12 12 12 12 12
11 11 10 10 11 11 11 10 10 11 11 11 11 12 12 12 12 12 12 12 11 11 11 11 11 11 11 11 11 11 11 11 11 10 11 11 11 11 12 12 11 11 12 12 12 12 12 12 12
11 11 11 10 11 11 12 11 11 12 12 12 12 12 13 13 13 13 13 13 13 13 12 12 12 12 12 12 12 12 12 12 11 11 11 12 12 12 12 12 12 12 12 12 12 13 13 13 13
12 11 12 12 12 13 12 13 12 12 12 13 13 13 14 14 15 15 15 15 14 14 14 14 13 13 13 13 13 12 12 13 13 12 12 12 12 12 13 13 13 13 13 12 13 13 14 14 15
12 12 12 12 13 14 13 14 13 13 13 13 14 14 15 15 16 16 16 16 15 15 15 15 15 14 14 14 14 14 14 14 14 13 13 13 13 14 13 13 13 14 14 14 13 14 15 15 15
13 13 14 14 14 14 14 14 14 13 13 14 14 15 16 16 16 16 17 17 16 16 15 15 15 15 15 15 15 15 15 15 15 15 14 14 14 14 14 14 14 14 14 15 15 15 16 16 16
15 15 14 15 15 15 15 15 14 14 14 14 15 16 16 17 17 17 17 17 17 17 17 17 17 17 17 17 16 16 16 16 16 16 15 15 15 15 15 14 14 14 15 15 16 17 16 16 16
16 15 15 15 15 16 16 16 15 14 14 15 16 16 17 17 17 17 18 18 17 18 18 18 18 18 18 17 17 17 16 17 17 17 17 16 16 16 15 15 15 15 15 15 16 17 17 17 16
17 17 17 17 17 16 16 16 16 15 15 16 16 17 17 17 18 18 18 18 18 18 19 19 20 19 19 19 18 18 18 18 18 18 18 18 18 17 17 16 16 16 16 16 17 17 17 17 17
18 18 18 18 18 17 17 17 16 16 16 16 17 17 17 17 17 18 18 19 19 19 19 20 20 20 20 20 20 20 20 19 19 18 18 19 18 18 18 18 18 17 17 17 17 17 17 17 17
Wind_Direction
219 223 212 192 203 213 216 215 222 221 220 218 217 219 222 223 227 230 229 227 228 230 234 234 237 236 232 225 221 219 214 217 219 229 225 211 211 213 213 213 212 218 214 213 220 221 220 225 233
210 207 189 188 202 214 217 215 218 219 219 221 224 222 224 227 230 234 234 232 235 237 238 239 238 237 235 229 225 227 232 233 229 226 227 220 219 220 223 218 218 225 222 224 227 232 239 242 245
202 204 195 195 203 213 217 218 218 219 219 223 228 228 227 227 230 235 238 235 236 239 241 239 240 240 233 230 229 231 234 236 234 229 227 224 222 225 227 226 232 235 237 239 243 249 248 250 252
198 198 200 203 210 215 219 223 220 221 217 220 226 228 228 232 235 240 240 236 238 241 244 242 240 236 229 228 230 233 233 235 234 232 228 225 222 225 231 233 237 241 243 245 248 252 252 253 257
209 205 205 210 212 213 220 227 223 218 217 221 223 226 227 235 243 243 242 239 238 242 245 243 240 230 233 233 234 235 233 235 235 235 232 230 230 232 236 240 242 247 251 252 251 253 253 255 256
216 214 214 218 221 218 225 230 231 231 228 228 229 231 234 240 244 246 243 240 240 239 242 240 239 241 237 233 235 242 237 236 239 237 237 236 239 243 242 246 251 253 255 256 257 257 256 257 257
217 218 220 224 227 228 230 228 226 233 230 230 232 236 238 240 243 244 242 242 242 242 242 239 234 234 235 236 236 238 240 240 238 237 237 237 238 244 250 255 256 257 259 259 260 257 257 259 257
219 221 226 230 228 226 230 226 223 229 230 230 232 240 242 241 241 242 242 241 243 243 243 239 234 231 234 236 240 238 238 238 235 239 240 242 249 253 253 257 256 258 255 255 260 261 261 257 257
218 221 230 230 227 227 231 230 224 227 230 230 233 239 242 240 240 242 242 241 241 243 241 239 236 233 234 237 242 240 239 239 241 243 246 252 258 260 256 256 258 260 260 262 263 263 266 262 258
217 220 228 229 232 229 226 230 227 227 231 231 232 234 235 236 240 240 240 242 244 245 244 242 240 238 238 239 242 246 249 252 254 257 258 258 262 264 259 258 259 261 265 263 262 264 266 264 260
220 227 231 232 231 229 228 232 228 228 229 225 226 227 228 232 233 236 241 243 241 242 241 244 245 242 241 242 243 246 249 253 256 256 259 262 262 262 260 257 256 259 263 263 263 265 269 267 265
229 233 235 237 233 231 228 226 225 223 224 223 222 222 222 225 230 237 242 242 243 242 242 244 247 246 244 245 248 250 252 253 252 253 251 257 260 263 264 259 256 258 263 266 267 267 266 268 267
236 238 232 234 234 225 221 224 227 227 229 233 234 235 233 231 235 241 241 246 243 242 243 244 246 246 246 248 251 253 255 256 258 259 253 255 261 264 264 261 259 263 269 270 271 273 273 272 272
242 242 235 232 230 224 217 220 228 234 235 239 242 245 244 243 245 246 246 247 247 246 247 248 246 245 247 250 253 257 258 261 262 263 258 258 260 264 263 263 266 269 271 274 275 274 276 276 275
242 239 233 231 228 226 223 226 233 239 240 241 243 248 250 251 251 252 252 251 249 249 249 252 252 250 248 250 252 255 258 260 264 264 263 262 262 262 263 265 267 269 271 272 273 275 275 275 276
241 236 236 235 233 227 231 232 234 237 242 244 249 253 254 255 255 255 256 256 253 252 251 251 254 254 250 250 252 253 256 259 261 263 267 264 264 264 267 270 271 271 271 271 273 276 278 279 280
239 242 242 240 236 235 236 237 238 241 247 252 258 260 260 260 260 261 261 259 257 256 256 256 255 253 253 251 253 253 255 256 258 261 265 268 265 268 270 272 273 272 270 271 275 277 281 282 283
243 246 246 245 242 243 241 242 242 247 251 256 261 263 262 260 260 262 262 262 261 259 257 258 256 251 251 253 252 253 254 255 256 260 264 268 269 266 270 274 275 274 273 274 278 282 284 283 284
243 244 247 247 247 249 251 250 251 253 254 257 260 263 263 261 259 259 262 263 263 263 261 258 255 252 252 253 253 255 253 254 256 259 262 265 266 265 268 273 275 274 275 276 279 281 282 282 284
246 246 252 251 250 253 256 253 253 252 253 258 260 260 259 260 260 261 263 264 265 265 264 262 258 254 255 256 255 256 255 254 253 257 260 262 265 266 267 273 275 275 275 277 280 282 282 283 283
246 249 254 255 254 257 258 258 256 255 254 258 258 258 258 258 260 262 267 268 266 266 265 262 260 258 259 258 259 257 255 256 257 260 261 260 263 269 271 275 276 275 275 276 278 281 282 283 284
245 248 251 252 252 256 259 260 257 257 257 258 259 258 259 260 262 265 267 268 267 266 265 263 260 260 260 261 261 257 255 257 258 260 263 263 265 270 273 276 277 277 277 276 278 280 282 284 286
245 248 248 248 251 256 259 259 257 258 258 259 262 261 259 259 262 266 267 266 264 263 263 262 259 259 260 261 263 263 261 259 260 262 263 265 267 270 274 276 280 280 277 275 276 279 282 284 285
246 249 248 247 251 256 257 258 256 258 262 263 264 263 260 260 261 264 265 266 263 261 262 262 261 259 260 261 263 265 264 263 262 262 263 265 268 272 274 276 280 282 280 276 276 277 280 282 284
246 248 251 254 255 258 258 258 258 261 262 263 265 264 262 261 261 262 265 265 264 262 261 260 260 260 260 263 264 267 269 268 264 262 263 265 268 273 274 275 278 281 280 280 278 279 279 279 280
247 248 251 255 258 261 262 263 264 266 265 265 265 265 263 261 261 262 264 264 262 262 259 260 260 260 261 263 265 265 267 267 263 262 263 264 266 270 273 275 277 278 280 281 283 283 282 280 279
248 249 252 256 259 261 262 265 266 268 267 265 264 266 265 263 263 264 265 265 262 261 260 260 259 259 262 263 264 265 268 266 264 262 263 265 266 268 272 275 276 276 279 281 284 284 287 285 282
247 250 252 255 261 264 265 267 267 268 268 267 266 266 266 265 265 265 266 265 263 260 260 261 260 260 260 260 262 265 268 266 264 263 263 263 263 266 270 273 277 278 279 282 284 286 286 285 282
248 249 252 257 260 264 267 269 269 268 268 269 268 267 267 267 266 266 266 266 264 262 262 262 262 262 261 261 262 265 266 267 265 264 263 263 264 267 270 273 275 277 277 280 283 284 284 282 279
251 254 255 257 261 263 267 270 272 270 270 270 269 268 268 269 269 268 267 267 266 266 265 263 262 262 261 260 262 263 264 268 267 263 263 263 264 266 268 271 273 275 276 278 280 281 281 280 278
Height
5859 5858 5857 5861 5863 5864 5864 5865 5865 5866 5866 5867 5867 5867 5868 5868 5869 5871 5869 5868 5868 5868 5867 5867 5868 5868 5868 5868 5868 5867 5867 5867 5867 5866 5864 5864 5865 5866 5867 5867 5867 5868 5868 5869 5869 5869 5869 5869 5870
5858 5858 5859 5860 5861 5863 5864 5864 5864 5865 5865 5865 5865 5866 5866 5867 5867 5867 5867 5866 5867 5866 5867 5867 5866 5866 5867 5867 5867 5867 5867 5867 5866 5866 5865 5865 5865 5865 5866 5867 5867 5867 5867 5868 5868 5868 5869 5869 5869
5858 5858 5860 5860 5861 5862 5863 5863 5863 5863 5864 5864 5864 5865 5865 5866 5866 5866 5866 5866 5865 5865 5866 5866 5865 5865 5865 5866 5866 5866 5866 5866 5866 5865 5865 5865 5865 5865 5866 5866 5866 5866 5867 5867 5867 5868 5868 5868 5868
5858 5859 5860 5860 5860 5861 5861 5862 5862 5862 5863 5863 5863 5863 5864 5864 5864 5864 5864 5864 5864 5864 5864 5865 5864 5863 5864 5864 5865 5865 5865 5865 5865 5865 5865 5865 5865 5865 5865 5865 5865 5865 5866 5866 5866 5866 5867 5867 5867
5857 5858 5859 5859 5859 5860 5860 5860 5860 5861 5861 5862 5862 5862 5862 5862 5862 5863 5863 5863 5863 5863 5863 5863 5863 5862 5863 5863 5863 5863 5863 5864 5864 5864 5864 5864 5864 5864 5864 5864 5864 5864 5865 5865 5865 5865 5865 5865 5866
5857 5858 5858 5858 5858 5859 5859 5859 5859 5860 5860 5860 5861 5861 5861 5861 5861 5861 5861 5861 5861 5861 5861 5862 5862 5862 5862 5862 5862 5862 5862 5862 5863 5862 5862 5863 5863 5863 5863 5863 5863 5863 5863 5863 5863 5863 5864 5864 5864
5857 5856 5856 5857 5857 5857 5858 5858 5858 5858 5859 5859 5859 5860 5860 5860 5860 5860 5860 5860 5860 5860 5860 5860 5860 5860 5860 5861 5861 5861 5861 5861 5861 5861 5861 5861 5861 5861 5861 5861 5861 5861 5862 5862 5862 5862 5862 5862 5862
5854 5856 5855 5855 5856 5856 5856 5856 5857 5857 5858 5858 5858 5858 5858 5859 5858 5858 5858 5858 5858 5858 5858 5859 5859 5859 5859 5859 5860 5859 5859 5860 5860 5860 5860 5860 5860 5859 5859 5859 5859 5859 5859 5860 5860 5860 5860 5860 5860
5853 5855 5854 5854 5854 5855 5855 5855 5855 5855 5856 5856 5857 5857 5857 5857 5857 5857 5857 5857 5857 5857 5857 5857 5857 5858 5858 5858 5858 5858 5858 5858 5858 5858 5858 5858 5858 5857 5857 5857 5857 5857 5857 5858 5858 5858 5858 5858 5858
5852 5852 5852 5853 5853 5853 5853 5854 5854 5854 5855 5855 5855 5855 5855 5855 5856 5856 5856 5856 5855 5855 5855 5855 5856 5856 5856 5857 5857 5857 5857 5857 5857 5857 5857 5856 5856 5855 5855 5855 5855 5856 5856 5856 5856 5856 5856 5856 5856
5850 5851 5851 5851 5851 5852 5852 5852 5852 5853 5853 5854 5854 5854 5854 5854 5854 5854 5854 5854 5854 5854 5854 5854 5854 5854 5855 5855 5855 5855 5855 5855 5855 5855 5855 5855 5854 5853 5853 5853 5853 5854 5854 5854 5854 5854 5854 5854 5853
5849 5849 5849 5850 5850 5850 5851 5851 5851 5852 5852 5853 5853 5853 5853 5853 5853 5853 5853 5853 5853 5853 5853 5853 5853 5853 5853 5853 5854 5854 5854 5854 5854 5854 5853 5853 5853 5852 5852 5852 5852 5852 5852 5852 5852 5852 5852 5852 5851
5847 5847 5848 5848 5848 5849 5849 5850 5850 5850 5851 5851 5851 5852 5852 5852 5852 5852 5852 5852 5852 5852 5851 5851 5851 5851 5851 5852 5852 5852 5852 5853 5852 5852 5852 5852 5851 5851 5851 5850 5850 5850 5851 5850 5850 5850 5850 5849 5849
5846 5846 5846 5847 5847 5848 5848 5849 5849 5849 5849 5850 5850 5850 5850 5850 5850 5850 5850 5850 5850 5850 5850 5850 5850 5850 5850 5850 5850 5851 5851 5851 5851 5851 5850 5850 5850 5850 5850 5849 5849 5849 5849 5849 5849 5848 5848 5848 5847
5844 5845 5845 5845 5846 5846 5847 5848 5848 5848 5848 5848 5848 5848 5848 5848 5848 5848 5848 5848 5848 5848 5848 5848 5848 5848 5848 5848 5848 5849 5849 5849 5849 5849 5849 5849 5849 5848 5848 5848 5847 5847 5847 5847 5847 5846 5846 5846 5845
5842 5843 5844 5844 5844 5845 5847 5847 5846 5846 5846 5846 5847 5847 5847 5847 5847 5847 5847 5846 5846 5846 5846 5846 5846 5846 5846 5846 5846 5847 5847 5847 5848 5847 5847 5847 5847 5847 5846 5846 5846 5846 5845 5845 5845 5844 5844 5843 5843
5841 5842 5842 5843 5843 5843 5845 5845 5845 5844 5845 5845 5845 5845 5845 5845 5845 5845 5845 5844 5844 5844 5844 5844 5844 5844 5844 5844 5844 5845 5845 5845 5846 5846 5845 5845 5845 5845 5844 5844 5844 5844 5843 5843 5843 5842 5842 5841 5840
5840 5840 5840 5841 5841 5842 5842 5843 5842 5842 5843 5843 5843 5843 5843 5843 5843 5843 5843 5842 5842 5842 5842 5842 5842 5842 5842 5842 5842 5843 5843 5843 5843 5843 5843 5843 5843 5843 5842 5842 5842 5841 5841 5841 5840 5840 5839 5838 5838
5837 5838 5838 5839 5839 5839 5840 5840 5840 5840 5840 5840 5840 5840 5840 5840 5840 5840 5840 5840 5840 5839 5839 5839 5839 5840 5840 5840 5840 5840 5841 5841 5841 5841 5841 5841 5841 5841 5840 5840 5840 5839 5839 5838 5838 5837 5837 5836 5835
5835 5836 5836 5836 5836 5837 5837 5838 5838 5838 5838 5838 5838 5838 5838 5838 5838 5838 5838 5838 5837 5837 5837 5837 5837 5837 5837 5838 5838 5838 5838 5838 5838 5839 5839 5839 5839 5838 5838 5838 5837 5837 5836 5836 5835 5835 5834 5833 5832
5832 5833 5834 5834 5834 5834 5835 5836 5836 5836 5836 5836 5836 5835 5836 5836 5836 5836 5835 5835 5835 5835 5834 5834 5834 5835 5835 5835 5835 5835 5836 5836 5836 5836 5836 5836 5836 5836 5835 5835 5834 5834 5833 5833 5832 5831 5831 5830 5829
5830 5830 5831 5831 5831 5832 5833 5833 5833 5833 5833 5833 5833 5833 5833 5833 5833 5833 5833 5833 5832 5832 5832 5832 5832 5832 5832 5832 5832 5833 5833 5833 5833 5833 5833 5833 5833 5832 5832 5832 5831 5831 5830 5829 5829 5828 5827 5827 5825
5826 5827 5828 5828 5828 5829 5829 5830 5831 5830 5830 5830 5830 5829 5829 5829 5829 5830 5829 5829 5829 5829 5829 5829 5829 5830 5830 5830 5830 5830 5830 5830 5830 5830 5830 5830 5830 5829 5829 5828 5828 5827 5826 5826 5825 5825 5824 5823 5822
5823 5824 5824 5824 5825 5826 5826 5826 5827 5827 5826 5826 5826 5826 5825 5825 5826 5826 5826 5825 5825 5825 5825 5826 5826 5826 5826 5827 5827 5827 5827 5827 5827 5827 5827 5827 5826 5826 5825 5824 5824 5823 5823 5822 5821 5821 5820 5819 5818
5819 5820 5821 5821 5821 5822 5822 5822 5824 5823 5822 5822 5822 5821 5821 5821 5821 5821 5821 5821 5821 5822 5822 5822 5822 5822 5823 5823 5823 5823 5823 5823 5823 5823 5823 5823 5823 5822 5822 5821 5820 5819 5819 5818 5817 5816 5815 5814 5813
5815 5817 5818 5818 5818 5818 5818 5818 5819 5819 5818 5818 5817 5817 5817 5817 5817 5817 5817 5817 5817 5817 5817 5818 5818 5818 5818 5819 5819 5819 5819 5819 5819 5819 5819 5819 5819 5818 5818 5817 5816 5815 5815 5814 5813 5812 5811 5810 5809
5810 5811 5813 5814 5813 5814 5814 5814 5814 5814 5814 5813 5813 5812 5812 5812 5812 5812 5812 5812 5812 5812 5812 5813 5813 5813 5814 5814 5814 5815 5815 5815 5815 5815 5815 5815 5814 5814 5814 5813 5812 5811 5810 5810 5809 5808 5806 5805 5804
5807 5807 5808 5808 5808 5809 5809 5810 5810 5810 5809 5809 5808 5808 5807 5807 5807 5807 5807 5807 5807 5807 5807 5807 5808 5808 5809 5809 5810 5810 5810 5810 5810 5810 5810 5810 5810 5809 5809 5808 5808 5807 5806 5805 5804 5803 5802 5800 5799
5802 5803 5803 5804 5804 5805 5805 5807 5806 5805 5804 5804 5803 5803 5802 5802 5802 5802 5801 5801 5801 5801 5801 5802 5802 5802 5803 5804 5804 5805 5805 5805 5805 5805 5805 5805 5805 5804 5804 5803 5803 5802 5801 5800 5799 5798 5796 5795 5794
5796 5797 5798 5799 5799 5799 5800 5803 5800 5799 5799 5798 5798 5798 5797 5797 5797 5796 5796 5796 5795 5795 5795 5795 5796 5796 5797 5798 5798 5799 5799 5799 5799 5799 5799 5799 5799 5799 5798 5798 5797 5796 5795 5795 5794 5792 5791 5790 5789